Austin Bergstrom, TX

9:39 PM CST on November 18, 2017 (GMT -0600)
Austin Bergstrom International

Weather History for KAUS - May, 2013

Change the Weather History Date:

Sunday, May 26, 2013

  Actual Average Record
Temperature  
Mean Temperature 79 °F 78 °F  
Max Temperature 87 °F 89 °F 96 °F (1963)
Min Temperature 71 °F 67 °F 58 °F (1947)
Degree Days  
Heating Degree Days 0 0  
Month to date heating degree days 23 0  
Since 1 July heating degree days 1655 1900  
Cooling Degree Days 14 13  
Month to date cooling degree days 233 254  
Year to date cooling degree days 427 442  
Growing Degree Days 29 (Base 50)    
Moisture  
Dew Point 71 °F    
Average Humidity 76    
Maximum Humidity 93    
Minimum Humidity 59    
Precipitation  
Precipitation 0.25 in 0.14 in 8.79 in (2016)
Month to date precipitation 5.10 3.37  
Year to date precipitation 15.38 12.93  
Snow  
Snow 0.00 in - - ()
Month to date snowfall T  
Since 1 July snowfall T  
Snow Depth 0.00 in    
Sea Level Pressure  
Sea Level Pressure 30.03 in    
Wind  
Wind Speed 10 mph (SSE)    
Max Wind Speed 26 mph    
Max Gust Speed 35 mph    
Visibility 10 miles    
Events Rain    
T = Trace of Precipitation, MM = Missing Value Source: NWS Daily Summary

Daily Weather History Graph

Daily Weather History Graph

Search for Another Location

Airport or City:

Trip Planner

Search our weather history database for the weather conditions in past years. The results will help you decide how hot, cold, wet, or windy it might be!

Date:

Astronomy

May. 26, 2013 Rise Set
Actual Time 6:31 AM CDT 8:24 PM CDT
Civil Twilight 6:04 AM CDT 8:51 PM CDT
Nautical Twilight 5:32 AM CDT 9:23 PM CDT
Astronomical Twilight 4:57 AM CDT 9:58 PM CDT
Moon 10:15 PM CDT (5/26) 8:00 AM CDT (5/26)
Length of Visible Light 14h 46m
Length of Day
13h 53m
Waning Gibbous, 96% of the Moon is Illuminated
May 26
Waning Gibbous
May 31
Last Quarter
Jun 8
New
Jun 16
First Quarter
Jun 23
Full

Hourly Weather History & Observations

Time (CDT) Temp. Heat Index Dew Point Humidity Pressure Visibility Wind Dir Wind Speed Gust Speed Precip Events Conditions
12:53 AM 75.0 °F - 71.1 °F 87% 30.07 in 10.0 mi SSE 8.1 mph - N/A   Overcast
1:53 AM 73.9 °F - 71.1 °F 91% 30.04 in 10.0 mi SSE 9.2 mph - N/A   Overcast
2:49 AM 73.4 °F - 71.6 °F 94% 30.06 in 10.0 mi SSE 6.9 mph - N/A   Overcast
2:53 AM 73.9 °F - 71.1 °F 91% 30.04 in 10.0 mi SSE 8.1 mph - 0.00 in Rain Light Rain
3:53 AM 73.9 °F - 72.0 °F 93% 30.04 in 10.0 mi SE 10.4 mph - 0.04 in   Overcast
4:02 AM 73.4 °F - 71.6 °F 94% 30.06 in 10.0 mi SSE 9.2 mph - N/A   Overcast
4:53 AM 73.9 °F - 71.1 °F 91% 30.03 in 10.0 mi SE 8.1 mph - N/A   Mostly Cloudy
5:42 AM 73.4 °F - 71.6 °F 94% 30.05 in 10.0 mi SSE 6.9 mph - N/A   Overcast
5:53 AM 73.0 °F - 71.1 °F 93% 30.03 in 10.0 mi SSE 4.6 mph - N/A   Overcast
6:53 AM 73.0 °F - 72.0 °F 96% 30.05 in 8.0 mi South 4.6 mph - 0.01 in   Overcast
7:05 AM 73.4 °F - 71.6 °F 94% 30.07 in 9.0 mi SSE 6.9 mph - N/A   Overcast
7:53 AM 73.9 °F - 72.0 °F 93% 30.04 in 10.0 mi South 6.9 mph - N/A   Overcast
8:39 AM 75.2 °F - 71.6 °F 89% 30.07 in 10.0 mi SSE 12.7 mph - N/A   Overcast
8:53 AM 75.0 °F - 72.0 °F 90% 30.05 in 10.0 mi SSE 11.5 mph - N/A   Overcast
9:35 AM 77.0 °F - 71.6 °F 83% 30.08 in 10.0 mi SSE 13.8 mph - N/A   Overcast
9:53 AM 78.1 °F - 72.0 °F 81% 30.05 in 10.0 mi SSE 15.0 mph 21.9 mph N/A   Overcast
10:03 AM 78.8 °F - 71.6 °F 78% 30.08 in 10.0 mi SSE 10.4 mph 19.6 mph N/A   Mostly Cloudy
10:53 AM 80.1 °F 83.6 °F 71.1 °F 74% 30.05 in 10.0 mi South 15.0 mph - N/A   Overcast
11:40 AM 82.4 °F 87.2 °F 71.6 °F 70% 30.08 in 10.0 mi SSE 15.0 mph - N/A   Mostly Cloudy
11:53 AM 82.9 °F 87.5 °F 71.1 °F 67% 30.04 in 10.0 mi SSE 15.0 mph - N/A   Mostly Cloudy
12:53 PM 84.9 °F 90.7 °F 72.0 °F 65% 30.02 in 10.0 mi South 15.0 mph - N/A   Mostly Cloudy
1:53 PM 87.1 °F 93.6 °F 72.0 °F 61% 30.00 in 10.0 mi South 15.0 mph 21.9 mph N/A   Mostly Cloudy
2:53 PM 78.1 °F - 70.0 °F 76% 30.02 in 10.0 mi South 17.3 mph 34.5 mph N/A   Overcast
3:53 PM 79.0 °F - 71.1 °F 77% 29.99 in 10.0 mi South 11.5 mph - 0.20 in   Mostly Cloudy
4:53 PM 80.1 °F 83.8 °F 72.0 °F 76% 29.98 in 10.0 mi South 6.9 mph - N/A   Overcast
5:53 PM 82.9 °F 88.0 °F 72.0 °F 69% 29.96 in 10.0 mi South 10.4 mph - N/A   Overcast
6:53 PM 82.9 °F 87.0 °F 70.0 °F 65% 29.95 in 10.0 mi SSE 9.2 mph - N/A   Overcast
7:53 PM 81.0 °F 84.1 °F 69.1 °F 67% 29.96 in 10.0 mi SSE 9.2 mph - N/A   Mostly Cloudy
8:53 PM 78.1 °F - 69.1 °F 74% 29.97 in 10.0 mi SSE 6.9 mph - N/A   Scattered Clouds
9:53 PM 75.9 °F - 66.9 °F 74% 29.97 in 10.0 mi SSE 9.2 mph - N/A   Scattered Clouds
10:53 PM 73.9 °F - 68.0 °F 82% 30.00 in 10.0 mi South 6.9 mph - N/A   Partly Cloudy
11:53 PM 73.0 °F - 68.0 °F 84% 30.01 in 10.0 mi South 6.9 mph - N/A   Partly Cloudy